{"data":{"norad_id":43017,"epoch":"2026-05-25T02:51:56.803680Z","epoch_age_seconds":64170,"freshness":"FRESH","line1":"1 43017U 17073E   26145.11940745  .00010474  00000+0  45768-3 0  9990","line2":"2 43017  97.4741  12.8110 0153085  48.7405 312.6896 15.12237586461907","mean_motion":15.12237586,"eccentricity":0.0153085,"inclination_deg":97.4741,"raan_deg":12.811,"arg_perigee_deg":48.7405,"mean_anomaly_deg":312.6896,"bstar":0.00045768,"rev_number":46190,"period_min":95.223132484686,"perigee_km":423.63408636157,"apogee_km":635.121466268,"semimajor_km":6907.5147763148,"source":"CELESTRAK","updated_at":"2026-05-25T13:38:23.288081Z"}}